Location: Izdebno
(52.6670°N, 16.2170°E)
Time: 03:59:35
(UTC+02:00)

SR - Pass Details

Date: 03 March 2024
Orbit: 577 x 862 km, 66.7° (Epoch: 22 April)

Event Time Altitude Azimuth Distance (km) Brightness Sun altitude
Rises 15:06:05 0° 243° (WSW) 3,431 ? 19.7°
Reaches altitude 10° 15:08:44 10° 250° (WSW) 2,480 ? 19.4°
Maximum altitude 15:14:12 43° 322° (NW) 1,146 ? 18.8°
Drops below altitude 10° 15:19:24 10° 33° (NNE) 2,354 ? 18.2°
Sets 15:21:52 0° 41° (NE) 3,240 ? 17.9°
